Menomonie, WI

3:45 AM CST on December 09, 2016 (GMT -0600)
Menomonie

Weather History for KLUM - August, 2012

Change the Weather History Date:

Saturday, August 18, 2012

  Actual Average (KEAU) Record (KEAU)
Temperature  
Mean Temperature 60 °F -  
Max Temperature 77 °F 78 °F 96 °F (1976)
Min Temperature 44 °F 57 °F 41 °F (1963)
Degree Days  
Heating Degree Days 4    
Growing Degree Days 10 (Base 50)    
Moisture  
Dew Point 47 °F    
Average Humidity 64    
Maximum Humidity 100    
Minimum Humidity 28    
Precipitation  
Precipitation 0.25 in - - ()
Sea Level Pressure  
Sea Level Pressure 30.01 in    
Wind  
Wind Speed 3 mph (West)    
Max Wind Speed 15 mph    
Max Gust Speed 23 mph    
Visibility 10 miles    
Events Rain    
Averages and records for this station are not official NWS values.
T = Trace of Precipitation, MM = Missing Value Source: NWS Daily Summary

Daily Weather History Graph

Daily Weather History Graph

Search for Another Location

Airport or City:

Trip Planner

Search our weather history database for the weather conditions in past years. The results will help you decide how hot, cold, wet, or windy it might be!

Date:

Astronomy

Aug. 18, 2012 Rise Set
Actual Time 6:13 AM CDT 8:07 PM CDT
Civil Twilight 5:42 AM CDT 8:39 PM CDT
Nautical Twilight 5:03 AM CDT 9:17 PM CDT
Astronomical Twilight 4:21 AM CDT 9:59 PM CDT
Moon 7:28 AM CDT (8/18) 8:16 PM CDT (8/18)
Length of Visible Light 14h 57m
Length of Day
13h 54m
New Moon, 1% of the Moon is Illuminated
Aug 18
New Moon
Aug 24
First Quarter
Aug 31
Full
Sep 8
Last Quarter
Sep 15
New

Hourly Weather History & Observations

Time (CDT) Temp. Dew Point Humidity Pressure Visibility Wind Dir Wind Speed Gust Speed Precip Events Conditions
12:15 AM 53.6 °F 48.2 °F 82% 30.04 in 10.0 mi Calm Calm - N/A   Clear
12:35 AM 53.6 °F 50.0 °F 88% 30.04 in 10.0 mi WSW 3.5 mph - N/A   Clear
12:55 AM 53.6 °F 48.2 °F 82% 30.04 in 10.0 mi Calm Calm - N/A   Clear
1:15 AM 51.8 °F 48.2 °F 88% 30.04 in 10.0 mi Calm Calm - N/A   Clear
1:35 AM 51.8 °F 48.2 °F 88% 30.03 in 10.0 mi Calm Calm - N/A   Clear
1:55 AM 51.8 °F 48.2 °F 88% 30.03 in 10.0 mi Calm Calm - N/A   Clear
2:15 AM 50.0 °F 46.4 °F 87% 30.03 in 10.0 mi Calm Calm - N/A   Clear
2:35 AM 50.0 °F 46.4 °F 87% 30.03 in 10.0 mi Calm Calm - N/A   Clear
2:55 AM 50.0 °F 46.4 °F 87% 30.03 in 10.0 mi Calm Calm - N/A   Clear
3:15 AM 48.2 °F 46.4 °F 93% 30.03 in 10.0 mi Calm Calm - N/A   Clear
3:35 AM 46.4 °F 44.6 °F 93% 30.03 in 10.0 mi Calm Calm - N/A   Clear
3:55 AM 46.4 °F 44.6 °F 93% 30.03 in 10.0 mi Calm Calm - N/A   Clear
4:15 AM 46.4 °F 44.6 °F 93% 30.03 in 10.0 mi Calm Calm - N/A   Clear
4:35 AM 46.4 °F 44.6 °F 93% 30.03 in 10.0 mi Calm Calm - N/A   Clear
4:55 AM 46.4 °F 44.6 °F 93% 30.03 in 10.0 mi Calm Calm - N/A   Clear
5:15 AM 46.4 °F 44.6 °F 93% 30.03 in 10.0 mi Calm Calm - N/A   Clear
5:35 AM 44.6 °F 44.6 °F 100% 30.03 in 10.0 mi Calm Calm - N/A   Clear
5:55 AM 46.4 °F 44.6 °F 93% 30.04 in 10.0 mi Calm Calm - N/A   Clear
6:15 AM 46.4 °F 44.6 °F 93% 30.04 in 10.0 mi Calm Calm - N/A   Clear
6:35 AM 44.6 °F 44.6 °F 100% 30.04 in 10.0 mi Calm Calm - N/A   Clear
7:15 AM 46.4 °F 44.6 °F 93% 30.04 in 10.0 mi Calm Calm - N/A   Clear
7:35 AM 46.4 °F 46.4 °F 100% 30.04 in 1.5 mi Calm Calm - N/A   Mist
7:55 AM 50.0 °F 46.4 °F 87% 30.04 in 10.0 mi Calm Calm - N/A   Clear
8:35 AM 53.6 °F 50.0 °F 88% 30.04 in 10.0 mi Calm Calm - N/A   Clear
8:55 AM 57.2 °F 50.0 °F 77% 30.04 in 10.0 mi Calm Calm - N/A   Clear
9:15 AM 59.0 °F 50.0 °F 72% 30.03 in 10.0 mi Calm Calm - N/A   Clear
9:35 AM 62.6 °F 50.0 °F 63% 30.03 in 10.0 mi Calm Calm - N/A   Clear
9:55 AM 64.4 °F 50.0 °F 59% 30.04 in 10.0 mi Calm Calm - N/A   Clear
10:15 AM 66.2 °F 50.0 °F 56% 30.03 in 10.0 mi West 3.5 mph - N/A   Clear
10:35 AM 68.0 °F 48.2 °F 49% 30.03 in 10.0 mi SW 3.5 mph - N/A   Clear
10:55 AM 69.8 °F 50.0 °F 49% 30.03 in 10.0 mi West 5.8 mph - N/A   Clear
11:15 AM 69.8 °F 46.4 °F 43% 30.03 in 10.0 mi Calm Calm - N/A   Clear
11:35 AM 71.6 °F 42.8 °F 35% 30.03 in 10.0 mi WNW 4.6 mph - N/A   Scattered Clouds
12:15 PM 71.6 °F 44.6 °F 38% 30.02 in 10.0 mi WNW 8.1 mph - N/A   Mostly Cloudy
12:35 PM 71.6 °F 44.6 °F 38% 30.02 in 10.0 mi WNW 5.8 mph - N/A   Mostly Cloudy
12:55 PM 71.6 °F 44.6 °F 38% 30.02 in 10.0 mi WNW 6.9 mph - N/A   Mostly Cloudy
1:15 PM 73.4 °F 44.6 °F 36% 30.01 in 10.0 mi WNW 8.1 mph - N/A   Mostly Cloudy
1:35 PM 73.4 °F 44.6 °F 36% 30.00 in 10.0 mi NW 6.9 mph - N/A   Scattered Clouds
1:55 PM 71.6 °F 44.6 °F 38% 30.00 in 10.0 mi Calm Calm - N/A   Scattered Clouds
2:15 PM 71.6 °F 44.6 °F 38% 30.00 in 10.0 mi West 9.2 mph - N/A   Mostly Cloudy
2:35 PM 73.4 °F 42.8 °F 33% 29.99 in 10.0 mi West 4.6 mph - N/A   Scattered Clouds
2:55 PM 77.0 °F 42.8 °F 29% 29.98 in 10.0 mi West 10.4 mph - N/A   Clear
3:15 PM 75.2 °F 42.8 °F 31% 29.98 in 10.0 mi WSW 6.9 mph - N/A   Clear
3:35 PM 77.0 °F 42.8 °F 29% 29.97 in 10.0 mi West 8.1 mph - N/A   Scattered Clouds
3:55 PM 77.0 °F 42.8 °F 29% 29.97 in 10.0 mi West 10.4 mph - N/A   Clear
4:15 PM 77.0 °F 42.8 °F 29% 29.96 in 10.0 mi SW 4.6 mph - N/A   Scattered Clouds
4:35 PM 77.0 °F 41.0 °F 28% 29.95 in 10.0 mi SW 8.1 mph - N/A   Scattered Clouds
4:55 PM 77.0 °F 42.8 °F 29% 29.95 in 10.0 mi SW 8.1 mph - N/A   Scattered Clouds
5:15 PM 73.4 °F 42.8 °F 33% 29.95 in 10.0 mi West 9.2 mph - N/A   Clear
5:35 PM 73.4 °F 42.8 °F 33% 29.95 in 10.0 mi West 6.9 mph - N/A   Clear
5:55 PM 75.2 °F 42.8 °F 31% 29.94 in 10.0 mi West 8.1 mph - N/A   Scattered Clouds
6:15 PM 75.2 °F 44.6 °F 34% 29.95 in 10.0 mi WSW 9.2 mph - N/A   Mostly Cloudy
6:35 PM 73.4 °F 44.6 °F 36% 29.94 in 10.0 mi WSW 11.5 mph - N/A   Mostly Cloudy
6:55 PM 73.4 °F 44.6 °F 36% 29.95 in 10.0 mi WSW 8.1 mph - N/A   Clear
7:15 PM 71.6 °F 46.4 °F 41% 29.95 in 10.0 mi WSW 5.8 mph - N/A   Clear
7:35 PM 71.6 °F 46.4 °F 41% 29.94 in 10.0 mi WSW 4.6 mph - N/A   Clear
7:55 PM 69.8 °F 48.2 °F 46% 29.95 in 10.0 mi SW 3.5 mph - N/A   Scattered Clouds
8:15 PM 68.0 °F 48.2 °F 49% 29.97 in 10.0 mi North 13.8 mph 23.0 mph N/A   Mostly Cloudy
8:35 PM 66.2 °F 48.2 °F 52% 29.98 in 10.0 mi North 12.7 mph 20.7 mph N/A   Overcast
8:55 PM 64.4 °F 50.0 °F 59% 30.00 in 10.0 mi North 15.0 mph 20.7 mph N/A   Overcast
9:15 PM 60.8 °F 51.8 °F 72% 30.00 in 10.0 mi North 13.8 mph 19.6 mph N/A Rain Light Rain
9:35 PM 59.0 °F 53.6 °F 82% 30.00 in 5.0 mi North 13.8 mph 17.3 mph 0.02 in Rain Heavy Rain
9:55 PM 59.0 °F 53.6 °F 82% 30.00 in 10.0 mi NE 5.8 mph - 0.05 in Rain Light Rain
10:15 PM 59.0 °F 53.6 °F 82% 30.00 in 7.0 mi Calm Calm - 0.03 in Rain Rain
10:35 PM 59.0 °F 55.4 °F 88% 30.01 in 7.0 mi WNW 5.8 mph - 0.08 in Rain Rain
10:55 PM 59.0 °F 53.6 °F 82% 30.00 in 10.0 mi West 11.5 mph - 0.09 in Rain Rain
11:15 PM 59.0 °F 55.4 °F 88% 29.99 in 7.0 mi WSW 9.2 mph - 0.08 in Rain Rain
11:35 PM 57.2 °F 55.4 °F 94% 29.98 in 10.0 mi SSW 6.9 mph - 0.11 in Rain Light Rain